No 32takemaru — JG5746 — position and weather

sailwx.info

Track history (hours):
 
Tides and Currents Weather Stations Pressure Air Temp Water Temp Dewpoint Dewpoint Depression Visibility Wind Speed Wind Dir Waves Ship Positions

No 32takemaru

Last reported at 2018-Jul-17 09:01 UTC. Time now 2018-Jul-17 09:07 UTC.
Position N 34°34' E 135°23'.

Length 38 m; draft 2.8 m.

Type: Tug. MMSI: 431000341.

Date/timePositionNaut miles runAvg speedWind from/ knotsBaromVisibWave heightAir tempDewpointWater temp
2018-Jul-17 09:01N 34°34' E 135°23'3 3.2
2018-Jul-17 08:11N 34°31' E 135°23'0 0.3
2018-Jul-17 08:01N 34°31' E 135°23'1 0.2
2018-Jul-17 03:15N 34°31' E 135°24'1 2.8
2018-Jul-17 02:58N 34°31' E 135°23'0 0.6
2018-Jul-17 02:29N 34°32' E 135°23'1 2.3
2018-Jul-17 02:00N 34°33' E 135°23'0 0.7
2018-Jul-17 01:30N 34°32' E 135°23'2 3.3
2018-Jul-17 01:00N 34°33' E 135°25'1 2.3
2018-Jul-17 00:31N 34°34' E 135°23'2 1.8
2018-Jul-16 23:29N 34°36' E 135°24'4 7.5
2018-Jul-16 23:00N 34°39' E 135°26'2 1.9
2018-Jul-16 22:10N 34°39' E 135°28'0 0.0
2018-Jul-16 21:59N 34°39' E 135°28'0 0.0
2018-Jul-16 21:30N 34°39' E 135°28'0 0.0
2018-Jul-16 20:57N 34°39' E 135°28'0 0.0
2018-Jul-16 20:30N 34°39' E 135°28'0 0.0
2018-Jul-16 20:00N 34°39' E 135°28'0 0.0
2018-Jul-16 19:24N 34°39' E 135°28'0 0.0
2018-Jul-16 19:00N 34°39' E 135°28'0 0.0
2018-Jul-16 18:30N 34°39' E 135°28'0 0.0
2018-Jul-16 17:43N 34°39' E 135°28'0 0.0
2018-Jul-16 17:01N 34°39' E 135°28'0 0.0
2018-Jul-16 17:00N 34°39' E 135°28'0 0.0
2018-Jul-16 16:23N 34°39' E 135°28'0 0.0
2018-Jul-16 15:53N 34°39' E 135°28'0 0.0
2018-Jul-16 15:29N 34°39' E 135°28'0 0.0
2018-Jul-16 14:50N 34°39' E 135°28'0 0.0
2018-Jul-16 14:26N 34°39' E 135°28'0 0.0
2018-Jul-16 13:57N 34°39' E 135°28'0 0.0
2018-Jul-16 13:31N 34°39' E 135°28'0 0.0
2018-Jul-16 13:00N 34°39' E 135°28'0 0.0
2018-Jul-16 12:30N 34°39' E 135°28'0 0.0
2018-Jul-16 12:00N 34°39' E 135°28'0 0.0
2018-Jul-16 11:31N 34°39' E 135°28'0 0.0
2018-Jul-16 11:00N 34°39' E 135°28'0 0.0
2018-Jul-16 10:23N 34°39' E 135°28'0 0.0
2018-Jul-16 09:44N 34°39' E 135°28'0 0.0
2018-Jul-16 09:16N 34°39' E 135°28'0 0.0
2018-Jul-16 08:59N 34°39' E 135°28'2 4.1
2018-Jul-16 08:29N 34°39' E 135°26'1 2.5
2018-Jul-16 08:01N 34°39' E 135°24'2 3.8
2018-Jul-16 07:30N 34°39' E 135°26'1 0.2
2018-Jul-15 23:57N 34°39' E 135°28'0 0.0
2018-Jul-15 23:21N 34°39' E 135°28'2 4.2
2018-Jul-15 23:00N 34°38' E 135°26'1 1.5
2018-Jul-15 22:30N 34°39' E 135°26'2 3.3
2018-Jul-15 22:00N 34°39' E 135°24'1 2.7
2018-Jul-15 21:30N 34°39' E 135°26'2 0.4
2018-Jul-15 17:37N 34°39' E 135°28'0 0.0
2018-Jul-15 17:12N 34°39' E 135°28'0 0.0
2018-Jul-15 17:00N 34°39' E 135°28'0 0.0
2018-Jul-15 16:13N 34°39' E 135°28'0 0.0
2018-Jul-15 16:01N 34°39' E 135°28'0 0.0
2018-Jul-15 11:57N 34°39' E 135°28'0 0.0
2018-Jul-15 11:19N 34°39' E 135°28'2 5.6
2018-Jul-15 11:01N 34°39' E 135°26'1 2.7
2018-Jul-15 10:30N 34°38' E 135°25'0 0.1
2018-Jul-15 10:01N 34°38' E 135°25'1 2.3
2018-Jul-15 09:30N 34°39' E 135°26'2 3.8
2018-Jul-15 09:01N 34°39' E 135°28'0 0.0
2018-Jul-15 04:56N 34°39' E 135°28'3 7.2
2018-Jul-15 04:30N 34°39' E 135°24'2 3.7
2018-Jul-15 04:00N 34°38' E 135°26'0 0.1
2018-Jul-15 03:31N 34°38' E 135°27'0 0.2
2018-Jul-15 03:00N 34°38' E 135°27'1 0.4
2018-Jul-14 23:54N 34°39' E 135°28'0 0.0
2018-Jul-14 23:28N 34°39' E 135°28'0 0.0
2018-Jul-14 22:58N 34°39' E 135°28'0 0.0
2018-Jul-14 22:24N 34°39' E 135°28'0 0.0
2018-Jul-14 21:55N 34°39' E 135°28'2 5.3
2018-Jul-14 21:30N 34°39' E 135°25'0 0.8
2018-Jul-14 20:59N 34°39' E 135°26'0 0.1
2018-Jul-14 20:31N 34°39' E 135°26'2 3.3
2018-Jul-14 19:57N 34°39' E 135°28'0 0.0
2018-Jul-14 19:28N 34°39' E 135°28'0 0.0
2018-Jul-14 19:00N 34°39' E 135°28'0 0.0
2018-Jul-14 18:28N 34°39' E 135°28'0 0.0
2018-Jul-14 18:01N 34°39' E 135°28'0 0.0
2018-Jul-14 17:28N 34°39' E 135°28'0 0.0
2018-Jul-14 17:00N 34°39' E 135°28'0 0.0
2018-Jul-14 16:27N 34°39' E 135°28'0 0.0
2018-Jul-14 16:00N 34°39' E 135°28'0 0.0
2018-Jul-14 15:14N 34°39' E 135°28'0 0.0
2018-Jul-14 14:57N 34°39' E 135°28'0 0.5
2018-Jul-14 14:00N 34°39' E 135°27'3 5.4
2018-Jul-14 13:30N 34°39' E 135°24'1 1.4
2018-Jul-14 13:01N 34°38' E 135°24'2 3.0
2018-Jul-14 12:30N 34°39' E 135°26'2 4.0
2018-Jul-14 12:01N 34°39' E 135°28'0 0.0
2018-Jul-14 11:28N 34°39' E 135°28'0 0.0
2018-Jul-14 10:51N 34°39' E 135°28'0 0.0
2018-Jul-14 10:30N 34°39' E 135°28'0 0.0
2018-Jul-14 10:01N 34°39' E 135°28'0 0.0
2018-Jul-14 09:30N 34°39' E 135°28'0 0.0
2018-Jul-14 09:00N 34°39' E 135°28'0 0.0
2018-Jul-14 08:29N 34°39' E 135°28'0 0.0
2018-Jul-14 08:01N 34°39' E 135°28'0 0.0
2018-Jul-14 07:31N 34°39' E 135°28'0 0.0
2018-Jul-14 07:00N 34°39' E 135°28'3 6.6
2018-Jul-14 06:30N 34°39' E 135°24'0 0.4
2018-Jul-14 06:00N 34°39' E 135°24'1 2.7
2018-Jul-14 05:30N 34°39' E 135°26'2 3.8
2018-Jul-14 05:01N 34°39' E 135°28'0 0.0
2018-Jul-14 04:19N 34°39' E 135°28'0 0.0
2018-Jul-14 03:59N 34°39' E 135°28'0 0.0
2018-Jul-14 03:31N 34°39' E 135°28'0 0.0
2018-Jul-14 03:00N 34°39' E 135°28'0 0.0
2018-Jul-14 00:41N 34°39' E 135°28'1 8.0
2018-Jul-14 00:30N 34°39' E 135°26'1 2.2
2018-Jul-14 00:00N 34°39' E 135°25'0 0.3
2018-Jul-13 23:29N 34°39' E 135°25'1 1.5
2018-Jul-13 23:01N 34°39' E 135°26'2 0.1
2018-Jul-12 23:42N 34°39' E 135°28'1 5.8
2018-Jul-12 23:31N 34°39' E 135°27'1 1.0
2018-Jul-12 23:00N 34°39' E 135°26'1 2.6
2018-Jul-12 22:30N 34°39' E 135°24'1 1.2
2018-Jul-12 22:01N 34°40' E 135°24'0 0.0
2018-Jul-12 21:30N 34°40' E 135°24'0 0.0
2018-Jul-12 21:00N 34°40' E 135°24'0 0.6
2018-Jul-12 20:30N 34°39' E 135°25'1 1.7
2018-Jul-12 20:01N 34°39' E 135°24'0 0.1
2018-Jul-12 19:30N 34°39' E 135°24'2 3.6
2018-Jul-12 19:00N 34°39' E 135°26'1 1.1
2018-Jul-12 17:41N 34°39' E 135°28'0 0.0
2018-Jul-12 17:30N 34°39' E 135°28'0 0.0
2018-Jul-12 16:56N 34°39' E 135°28'0 0.0
2018-Jul-12 16:30N 34°39' E 135°28'0 0.0
2018-Jul-12 16:00N 34°39' E 135°28'0 0.0
2018-Jul-12 15:30N 34°39' E 135°28'0 0.0
2018-Jul-12 15:00N 34°39' E 135°28'0 0.0
2018-Jul-12 14:23N 34°39' E 135°28'0 0.0
2018-Jul-12 13:59N 34°39' E 135°28'0 0.0
2018-Jul-12 13:08N 34°39' E 135°28'0 0.0
2018-Jul-12 12:57N 34°39' E 135°28'0 0.0
2018-Jul-12 12:21N 34°39' E 135°28'0 0.0
2018-Jul-12 11:55N 34°39' E 135°28'0 0.0
2018-Jul-12 11:29N 34°39' E 135°28'0 0.0
2018-Jul-12 10:59N 34°39' E 135°28'0 0.0
2018-Jul-12 10:30N 34°39' E 135°28'0 0.0
2018-Jul-12 09:59N 34°39' E 135°28'1 2.1
2018-Jul-12 09:30N 34°39' E 135°27'2 4.5
2018-Jul-12 09:00N 34°39' E 135°24'2 3.5
2018-Jul-12 08:30N 34°39' E 135°26'1 2.8
2018-Jul-12 07:58N 34°39' E 135°28'0 0.0
2018-Jul-12 07:30N 34°39' E 135°28'0 0.0
2018-Jul-12 06:58N 34°39' E 135°28'0 0.0
2018-Jul-12 06:31N 34°39' E 135°28'0 0.0
2018-Jul-12 05:54N 34°39' E 135°28'0 0.0
2018-Jul-12 05:29N 34°39' E 135°28'0 0.0
2018-Jul-12 04:54N 34°39' E 135°28'0 0.0
2018-Jul-12 04:28N 34°39' E 135°28'0 0.0
2018-Jul-12 04:00N 34°39' E 135°28'0 0.0
2018-Jul-12 03:30N 34°39' E 135°28'0 0.0
2018-Jul-12 03:00N 34°39' E 135°28'0 0.0
2018-Jul-12 02:24N 34°39' E 135°28'0 0.0
2018-Jul-12 01:57N 34°39' E 135°28'0 0.0
2018-Jul-12 01:30N 34°39' E 135°28'0 0.0
2018-Jul-12 01:00N 34°39' E 135°28'0 0.0
2018-Jul-12 00:29N 34°39' E 135°28'0 0.0
2018-Jul-11 23:59N 34°39' E 135°28'0 0.0
2018-Jul-11 23:24N 34°39' E 135°28'0 0.0
2018-Jul-11 23:00N 34°39' E 135°28'0 0.0
2018-Jul-11 22:30N 34°39' E 135°28'0 0.0
2018-Jul-11 21:59N 34°39' E 135°28'2 3.5
2018-Jul-11 21:30N 34°39' E 135°26'0 0.6
2018-Jul-11 21:00N 34°39' E 135°26'0 0.1
2018-Jul-11 20:31N 34°39' E 135°26'2 0.1
2018-Jul-11 05:58N 34°39' E 135°28'2 4.8
2018-Jul-11 05:30N 34°39' E 135°25'0 0.7
2018-Jul-11 04:59N 34°39' E 135°26'2 4.0
2018-Jul-11 04:30N 34°39' E 135°28'0 0.0
2018-Jul-10 22:14N 34°39' E 135°28'2 8.7
2018-Jul-10 22:00N 34°39' E 135°26'1 1.9
2018-Jul-10 21:31N 34°38' E 135°27'0 0.3
2018-Jul-10 21:00N 34°38' E 135°26'0 0.7
2018-Jul-10 20:30N 34°39' E 135°27'1 0.1
2018-Jul-10 11:08N 34°39' E 135°28'1 4.8
2018-Jul-10 10:58N 34°39' E 135°27'2 5.0
2018-Jul-10 10:30N 34°37' E 135°25'0 0.3
2018-Jul-10 09:57N 34°38' E 135°25'0 0.3
2018-Jul-10 09:29N 34°37' E 135°25'2 3.2
2018-Jul-10 09:00N 34°39' E 135°26'2 0.8
2018-Jul-10 06:55N 34°39' E 135°28'4 9.9
2018-Jul-10 06:30N 34°38' E 135°23'4 7.2
2018-Jul-10 05:58N 34°35' E 135°27'2 3.8
2018-Jul-10 05:30N 34°36' E 135°25'2 3.5
2018-Jul-10 05:00N 34°37' E 135°23'0 0.4
2018-Jul-10 04:31N 34°37' E 135°23'0 0.4
2018-Jul-10 03:59N 34°37' E 135°23'0 0.2
2018-Jul-10 03:30N 34°37' E 135°23'2 3.8
2018-Jul-10 02:59N 34°38' E 135°24'0 0.1
2018-Jul-10 02:30N 34°38' E 135°24'1 2.9
2018-Jul-10 02:01N 34°38' E 135°23'0 0.8
2018-Jul-10 01:30N 34°38' E 135°23'4 8.2
2018-Jul-10 00:59N 34°39' E 135°28'0 0.0
2018-Jul-10 00:30N 34°39' E 135°28'0 0.0
2018-Jul-10 00:01N 34°39' E 135°28'0 0.0
2018-Jul-09 23:30N 34°39' E 135°28'0 0.0
2018-Jul-09 23:00N 34°39' E 135°28'0 0.0
2018-Jul-09 22:30N 34°39' E 135°28'2 3.2
2018-Jul-09 22:00N 34°39' E 135°26'1 1.7
2018-Jul-09 21:29N 34°38' E 135°27'0 0.2
2018-Jul-09 20:55N 34°38' E 135°27'0 0.4
2018-Jul-09 20:28N 34°38' E 135°27'1 0.2
2018-Jul-09 13:44N 34°39' E 135°28'2 8.5
2018-Jul-09 13:31N 34°39' E 135°26'611.2
2018-Jul-09 13:01N 34°34' E 135°23'3 4.2
2018-Jul-09 12:19N 34°31' E 135°23'0 0.1
2018-Jul-09 11:50N 34°31' E 135°23'410.5
2018-Jul-09 11:28N 34°35' E 135°23'4 9.5
2018-Jul-09 11:00N 34°39' E 135°25'2 0.3
2018-Jul-09 02:02N 34°39' E 135°28'0 0.0
2018-Jul-09 01:55N 34°39' E 135°28'0 0.0
2018-Jul-09 01:26N 34°39' E 135°28'0 0.0
2018-Jul-09 00:58N 34°39' E 135°28'0 0.0
2018-Jul-09 00:24N 34°39' E 135°28'0 0.0
2018-Jul-08 23:18N 34°39' E 135°28'3 8.8
2018-Jul-08 23:00N 34°39' E 135°25'1 1.2
2018-Jul-08 22:31N 34°39' E 135°24'1 1.6
2018-Jul-08 22:01N 34°38' E 135°24'2 3.5
2018-Jul-08 21:30N 34°39' E 135°26'0 0.1
2018-Jul-08 21:00N 34°39' E 135°26'0 0.2
2018-Jul-08 20:30N 34°39' E 135°26'2 3.6
2018-Jul-08 19:56N 34°39' E 135°28'0 0.0
2018-Jul-08 19:31N 34°39' E 135°28'0 0.0
2018-Jul-08 18:43N 34°39' E 135°28'0 0.0
2018-Jul-08 18:22N 34°39' E 135°28'0 0.0
2018-Jul-08 17:11N 34°39' E 135°28'0 0.0
2018-Jul-08 16:53N 34°39' E 135°28'0 0.0
2018-Jul-08 16:30N 34°39' E 135°28'0 0.0
2018-Jul-08 16:01N 34°39' E 135°28'0 0.0
2018-Jul-08 15:25N 34°39' E 135°28'0 0.0
2018-Jul-08 15:00N 34°39' E 135°28'0 0.0
2018-Jul-08 14:30N 34°39' E 135°28'0 0.0
2018-Jul-08 13:59N 34°39' E 135°28'0 0.0
2018-Jul-08 13:26N 34°39' E 135°28'0 0.0
2018-Jul-08 12:55N 34°39' E 135°28'0 0.0
2018-Jul-08 12:31N 34°39' E 135°28'0 0.0
2018-Jul-08 11:54N 34°39' E 135°28'0 0.0
2018-Jul-08 11:30N 34°39' E 135°28'0 0.0
2018-Jul-08 10:59N 34°39' E 135°28'0 0.0
2018-Jul-08 10:30N 34°39' E 135°28'0 0.0
2018-Jul-08 09:59N 34°39' E 135°28'0 0.0
2018-Jul-08 09:29N 34°39' E 135°28'3 6.4
2018-Jul-08 08:59N 34°39' E 135°24'0 0.3
2018-Jul-08 08:30N 34°39' E 135°24'3 6.8
2018-Jul-08 08:00N 34°39' E 135°28'0 0.0
2018-Jul-08 07:30N 34°39' E 135°28'0 0.0
2018-Jul-08 07:00N 34°39' E 135°28'0 0.0
2018-Jul-08 06:30N 34°39' E 135°28'0 0.0
2018-Jul-08 06:00N 34°39' E 135°28'0 0.0
2018-Jul-08 05:28N 34°39' E 135°28'0 0.0
2018-Jul-08 05:00N 34°39' E 135°28'0 0.0
2018-Jul-08 04:31N 34°39' E 135°28'0 0.0
2018-Jul-08 04:00N 34°39' E 135°28'1 2.9
2018-Jul-08 03:30N 34°38' E 135°27'0 0.2
2018-Jul-08 02:57N 34°38' E 135°27'2 3.4
2018-Jul-08 02:30N 34°39' E 135°28'0 0.0
2018-Jul-08 02:00N 34°39' E 135°28'0 0.0
2018-Jul-08 01:29N 34°39' E 135°28'0 0.0
2018-Jul-08 00:56N 34°39' E 135°28'0 0.0
2018-Jul-08 00:31N 34°39' E 135°28'0 0.0
2018-Jul-07 23:55N 34°39' E 135°28'1 1.6
2018-Jul-07 23:30N 34°39' E 135°27'1 1.4
2018-Jul-07 22:58N 34°38' E 135°27'1 3.1
2018-Jul-07 22:30N 34°39' E 135°25'0 0.9
2018-Jul-07 22:01N 34°39' E 135°24'2 3.6
2018-Jul-07 21:30N 34°39' E 135°27'1 2.0
2018-Jul-07 20:58N 34°39' E 135°28'0 0.0
2018-Jul-07 20:25N 34°39' E 135°28'0 0.0
2018-Jul-07 19:59N 34°39' E 135°28'0 0.0
2018-Jul-07 19:28N 34°39' E 135°28'0 0.0
2018-Jul-07 16:37N 34°39' E 135°28'0 0.0
2018-Jul-07 16:29N 34°39' E 135°28'0 0.0
2018-Jul-07 15:47N 34°39' E 135°28'0 0.0
2018-Jul-07 14:37N 34°39' E 135°28'0 0.0
2018-Jul-07 14:09N 34°39' E 135°28'0 0.0
2018-Jul-07 14:00N 34°39' E 135°28'0 0.0
2018-Jul-07 13:21N 34°39' E 135°28'0 0.0
2018-Jul-07 13:01N 34°39' E 135°28'0 0.0
2018-Jul-07 12:30N 34°39' E 135°28'0 0.0
2018-Jul-07 12:00N 34°39' E 135°28'0 0.0
2018-Jul-07 11:28N 34°39' E 135°28'0 0.0
2018-Jul-07 11:00N 34°39' E 135°28'0 0.0
2018-Jul-07 10:30N 34°39' E 135°28'0 0.0
2018-Jul-07 10:00N 34°39' E 135°28'0 0.0
2018-Jul-07 09:30N 34°39' E 135°28'  
Track history (hours):
 
Tides and Currents Weather Stations Pressure Air Temp Water Temp Dewpoint Dewpoint Depression Visibility Wind Speed Wind Dir Waves Ship Positions

No 32takemaru

Last reported at 2018-Jul-17 09:01 UTC. Time now 2018-Jul-17 09:07 UTC.
Position N 34°34' E 135°23'.

Length 38 m; draft 2.8 m.

Type: Tug. MMSI: 431000341.

Date/timePositionNaut miles runAvg speedWind from/ knotsBaromVisibWave heightAir tempDewpointWater temp
2018-Jul-17 09:01N 34°34' E 135°23'3 3.2
2018-Jul-17 08:11N 34°31' E 135°23'0 0.3
2018-Jul-17 08:01N 34°31' E 135°23'1 0.2
2018-Jul-17 03:15N 34°31' E 135°24'1 2.8
2018-Jul-17 02:58N 34°31' E 135°23'0 0.6
2018-Jul-17 02:29N 34°32' E 135°23'1 2.3
2018-Jul-17 02:00N 34°33' E 135°23'0 0.7
2018-Jul-17 01:30N 34°32' E 135°23'2 3.3
2018-Jul-17 01:00N 34°33' E 135°25'1 2.3
2018-Jul-17 00:31N 34°34' E 135°23'2 1.8
2018-Jul-16 23:29N 34°36' E 135°24'4 7.5
2018-Jul-16 23:00N 34°39' E 135°26'2 1.9
2018-Jul-16 22:10N 34°39' E 135°28'0 0.0
2018-Jul-16 21:59N 34°39' E 135°28'0 0.0
2018-Jul-16 21:30N 34°39' E 135°28'0 0.0
2018-Jul-16 20:57N 34°39' E 135°28'0 0.0
2018-Jul-16 20:30N 34°39' E 135°28'0 0.0
2018-Jul-16 20:00N 34°39' E 135°28'0 0.0
2018-Jul-16 19:24N 34°39' E 135°28'0 0.0
2018-Jul-16 19:00N 34°39' E 135°28'0 0.0
2018-Jul-16 18:30N 34°39' E 135°28'0 0.0
2018-Jul-16 17:43N 34°39' E 135°28'0 0.0
2018-Jul-16 17:01N 34°39' E 135°28'0 0.0
2018-Jul-16 17:00N 34°39' E 135°28'0 0.0
2018-Jul-16 16:23N 34°39' E 135°28'0 0.0
2018-Jul-16 15:53N 34°39' E 135°28'0 0.0
2018-Jul-16 15:29N 34°39' E 135°28'0 0.0
2018-Jul-16 14:50N 34°39' E 135°28'0 0.0
2018-Jul-16 14:26N 34°39' E 135°28'0 0.0
2018-Jul-16 13:57N 34°39' E 135°28'0 0.0
2018-Jul-16 13:31N 34°39' E 135°28'0 0.0
2018-Jul-16 13:00N 34°39' E 135°28'0 0.0
2018-Jul-16 12:30N 34°39' E 135°28'0 0.0
2018-Jul-16 12:00N 34°39' E 135°28'0 0.0
2018-Jul-16 11:31N 34°39' E 135°28'0 0.0
2018-Jul-16 11:00N 34°39' E 135°28'0 0.0
2018-Jul-16 10:23N 34°39' E 135°28'0 0.0
2018-Jul-16 09:44N 34°39' E 135°28'0 0.0
2018-Jul-16 09:16N 34°39' E 135°28'0 0.0
2018-Jul-16 08:59N 34°39' E 135°28'2 4.1
2018-Jul-16 08:29N 34°39' E 135°26'1 2.5
2018-Jul-16 08:01N 34°39' E 135°24'2 3.8
2018-Jul-16 07:30N 34°39' E 135°26'1 0.2
2018-Jul-15 23:57N 34°39' E 135°28'0 0.0
2018-Jul-15 23:21N 34°39' E 135°28'2 4.2
2018-Jul-15 23:00N 34°38' E 135°26'1 1.5
2018-Jul-15 22:30N 34°39' E 135°26'2 3.3
2018-Jul-15 22:00N 34°39' E 135°24'1 2.7
2018-Jul-15 21:30N 34°39' E 135°26'2 0.4
2018-Jul-15 17:37N 34°39' E 135°28'0 0.0
2018-Jul-15 17:12N 34°39' E 135°28'0 0.0
2018-Jul-15 17:00N 34°39' E 135°28'0 0.0
2018-Jul-15 16:13N 34°39' E 135°28'0 0.0
2018-Jul-15 16:01N 34°39' E 135°28'0 0.0
2018-Jul-15 11:57N 34°39' E 135°28'0 0.0
2018-Jul-15 11:19N 34°39' E 135°28'2 5.6
2018-Jul-15 11:01N 34°39' E 135°26'1 2.7
2018-Jul-15 10:30N 34°38' E 135°25'0 0.1
2018-Jul-15 10:01N 34°38' E 135°25'1 2.3
2018-Jul-15 09:30N 34°39' E 135°26'2 3.8
2018-Jul-15 09:01N 34°39' E 135°28'0 0.0
2018-Jul-15 04:56N 34°39' E 135°28'3 7.2
2018-Jul-15 04:30N 34°39' E 135°24'2 3.7
2018-Jul-15 04:00N 34°38' E 135°26'0 0.1
2018-Jul-15 03:31N 34°38' E 135°27'0 0.2
2018-Jul-15 03:00N 34°38' E 135°27'1 0.4
2018-Jul-14 23:54N 34°39' E 135°28'0 0.0
2018-Jul-14 23:28N 34°39' E 135°28'0 0.0
2018-Jul-14 22:58N 34°39' E 135°28'0 0.0
2018-Jul-14 22:24N 34°39' E 135°28'0 0.0
2018-Jul-14 21:55N 34°39' E 135°28'2 5.3
2018-Jul-14 21:30N 34°39' E 135°25'0 0.8
2018-Jul-14 20:59N 34°39' E 135°26'0 0.1
2018-Jul-14 20:31N 34°39' E 135°26'2 3.3
2018-Jul-14 19:57N 34°39' E 135°28'0 0.0
2018-Jul-14 19:28N 34°39' E 135°28'0 0.0
2018-Jul-14 19:00N 34°39' E 135°28'0 0.0
2018-Jul-14 18:28N 34°39' E 135°28'0 0.0
2018-Jul-14 18:01N 34°39' E 135°28'0 0.0
2018-Jul-14 17:28N 34°39' E 135°28'0 0.0
2018-Jul-14 17:00N 34°39' E 135°28'0 0.0
2018-Jul-14 16:27N 34°39' E 135°28'0 0.0
2018-Jul-14 16:00N 34°39' E 135°28'0 0.0
2018-Jul-14 15:14N 34°39' E 135°28'0 0.0
2018-Jul-14 14:57N 34°39' E 135°28'0 0.5
2018-Jul-14 14:00N 34°39' E 135°27'3 5.4
2018-Jul-14 13:30N 34°39' E 135°24'1 1.4
2018-Jul-14 13:01N 34°38' E 135°24'2 3.0
2018-Jul-14 12:30N 34°39' E 135°26'2 4.0
2018-Jul-14 12:01N 34°39' E 135°28'0 0.0
2018-Jul-14 11:28N 34°39' E 135°28'0 0.0
2018-Jul-14 10:51N 34°39' E 135°28'0 0.0
2018-Jul-14 10:30N 34°39' E 135°28'0 0.0
2018-Jul-14 10:01N 34°39' E 135°28'0 0.0
2018-Jul-14 09:30N 34°39' E 135°28'0 0.0
2018-Jul-14 09:00N 34°39' E 135°28'0 0.0
2018-Jul-14 08:29N 34°39' E 135°28'0 0.0
2018-Jul-14 08:01N 34°39' E 135°28'0 0.0
2018-Jul-14 07:31N 34°39' E 135°28'0 0.0
2018-Jul-14 07:00N 34°39' E 135°28'3 6.6
2018-Jul-14 06:30N 34°39' E 135°24'0 0.4
2018-Jul-14 06:00N 34°39' E 135°24'1 2.7
2018-Jul-14 05:30N 34°39' E 135°26'2 3.8
2018-Jul-14 05:01N 34°39' E 135°28'0 0.0
2018-Jul-14 04:19N 34°39' E 135°28'0 0.0
2018-Jul-14 03:59N 34°39' E 135°28'0 0.0
2018-Jul-14 03:31N 34°39' E 135°28'0 0.0
2018-Jul-14 03:00N 34°39' E 135°28'0 0.0
2018-Jul-14 00:41N 34°39' E 135°28'1 8.0
2018-Jul-14 00:30N 34°39' E 135°26'1 2.2
2018-Jul-14 00:00N 34°39' E 135°25'0 0.3
2018-Jul-13 23:29N 34°39' E 135°25'1 1.5
2018-Jul-13 23:01N 34°39' E 135°26'2 0.1
2018-Jul-12 23:42N 34°39' E 135°28'1 5.8
2018-Jul-12 23:31N 34°39' E 135°27'1 1.0
2018-Jul-12 23:00N 34°39' E 135°26'1 2.6
2018-Jul-12 22:30N 34°39' E 135°24'1 1.2
2018-Jul-12 22:01N 34°40' E 135°24'0 0.0
2018-Jul-12 21:30N 34°40' E 135°24'0 0.0
2018-Jul-12 21:00N 34°40' E 135°24'0 0.6
2018-Jul-12 20:30N 34°39' E 135°25'1 1.7
2018-Jul-12 20:01N 34°39' E 135°24'0 0.1
2018-Jul-12 19:30N 34°39' E 135°24'2 3.6
2018-Jul-12 19:00N 34°39' E 135°26'1 1.1
2018-Jul-12 17:41N 34°39' E 135°28'0 0.0
2018-Jul-12 17:30N 34°39' E 135°28'0 0.0
2018-Jul-12 16:56N 34°39' E 135°28'0 0.0
2018-Jul-12 16:30N 34°39' E 135°28'0 0.0
2018-Jul-12 16:00N 34°39' E 135°28'0 0.0
2018-Jul-12 15:30N 34°39' E 135°28'0 0.0
2018-Jul-12 15:00N 34°39' E 135°28'0 0.0
2018-Jul-12 14:23N 34°39' E 135°28'0 0.0
2018-Jul-12 13:59N 34°39' E 135°28'0 0.0
2018-Jul-12 13:08N 34°39' E 135°28'0 0.0
2018-Jul-12 12:57N 34°39' E 135°28'0 0.0
2018-Jul-12 12:21N 34°39' E 135°28'0 0.0
2018-Jul-12 11:55N 34°39' E 135°28'0 0.0
2018-Jul-12 11:29N 34°39' E 135°28'0 0.0
2018-Jul-12 10:59N 34°39' E 135°28'0 0.0
2018-Jul-12 10:30N 34°39' E 135°28'0 0.0
2018-Jul-12 09:59N 34°39' E 135°28'1 2.1
2018-Jul-12 09:30N 34°39' E 135°27'2 4.5
2018-Jul-12 09:00N 34°39' E 135°24'2 3.5
2018-Jul-12 08:30N 34°39' E 135°26'1 2.8
2018-Jul-12 07:58N 34°39' E 135°28'0 0.0
2018-Jul-12 07:30N 34°39' E 135°28'0 0.0
2018-Jul-12 06:58N 34°39' E 135°28'0 0.0
2018-Jul-12 06:31N 34°39' E 135°28'0 0.0
2018-Jul-12 05:54N 34°39' E 135°28'0 0.0
2018-Jul-12 05:29N 34°39' E 135°28'0 0.0
2018-Jul-12 04:54N 34°39' E 135°28'0 0.0
2018-Jul-12 04:28N 34°39' E 135°28'0 0.0
2018-Jul-12 04:00N 34°39' E 135°28'0 0.0
2018-Jul-12 03:30N 34°39' E 135°28'0 0.0
2018-Jul-12 03:00N 34°39' E 135°28'0 0.0
2018-Jul-12 02:24N 34°39' E 135°28'0 0.0
2018-Jul-12 01:57N 34°39' E 135°28'0 0.0
2018-Jul-12 01:30N 34°39' E 135°28'0 0.0
2018-Jul-12 01:00N 34°39' E 135°28'0 0.0
2018-Jul-12 00:29N 34°39' E 135°28'0 0.0
2018-Jul-11 23:59N 34°39' E 135°28'0 0.0
2018-Jul-11 23:24N 34°39' E 135°28'0 0.0
2018-Jul-11 23:00N 34°39' E 135°28'0 0.0
2018-Jul-11 22:30N 34°39' E 135°28'0 0.0
2018-Jul-11 21:59N 34°39' E 135°28'2 3.5
2018-Jul-11 21:30N 34°39' E 135°26'0 0.6
2018-Jul-11 21:00N 34°39' E 135°26'0 0.1
2018-Jul-11 20:31N 34°39' E 135°26'2 0.1
2018-Jul-11 05:58N 34°39' E 135°28'2 4.8
2018-Jul-11 05:30N 34°39' E 135°25'0 0.7
2018-Jul-11 04:59N 34°39' E 135°26'2 4.0
2018-Jul-11 04:30N 34°39' E 135°28'0 0.0
2018-Jul-10 22:14N 34°39' E 135°28'2 8.7
2018-Jul-10 22:00N 34°39' E 135°26'1 1.9
2018-Jul-10 21:31N 34°38' E 135°27'0 0.3
2018-Jul-10 21:00N 34°38' E 135°26'0 0.7
2018-Jul-10 20:30N 34°39' E 135°27'1 0.1
2018-Jul-10 11:08N 34°39' E 135°28'1 4.8
2018-Jul-10 10:58N 34°39' E 135°27'2 5.0
2018-Jul-10 10:30N 34°37' E 135°25'0 0.3
2018-Jul-10 09:57N 34°38' E 135°25'0 0.3
2018-Jul-10 09:29N 34°37' E 135°25'2 3.2
2018-Jul-10 09:00N 34°39' E 135°26'2 0.8
2018-Jul-10 06:55N 34°39' E 135°28'4 9.9
2018-Jul-10 06:30N 34°38' E 135°23'4 7.2
2018-Jul-10 05:58N 34°35' E 135°27'2 3.8
2018-Jul-10 05:30N 34°36' E 135°25'2 3.5
2018-Jul-10 05:00N 34°37' E 135°23'0 0.4
2018-Jul-10 04:31N 34°37' E 135°23'0 0.4
2018-Jul-10 03:59N 34°37' E 135°23'0 0.2
2018-Jul-10 03:30N 34°37' E 135°23'2 3.8
2018-Jul-10 02:59N 34°38' E 135°24'0 0.1
2018-Jul-10 02:30N 34°38' E 135°24'1 2.9
2018-Jul-10 02:01N 34°38' E 135°23'0 0.8
2018-Jul-10 01:30N 34°38' E 135°23'4 8.2
2018-Jul-10 00:59N 34°39' E 135°28'0 0.0
2018-Jul-10 00:30N 34°39' E 135°28'0 0.0
2018-Jul-10 00:01N 34°39' E 135°28'0 0.0
2018-Jul-09 23:30N 34°39' E 135°28'0 0.0
2018-Jul-09 23:00N 34°39' E 135°28'0 0.0
2018-Jul-09 22:30N 34°39' E 135°28'2 3.2
2018-Jul-09 22:00N 34°39' E 135°26'1 1.7
2018-Jul-09 21:29N 34°38' E 135°27'0 0.2
2018-Jul-09 20:55N 34°38' E 135°27'0 0.4
2018-Jul-09 20:28N 34°38' E 135°27'1 0.2
2018-Jul-09 13:44N 34°39' E 135°28'2 8.5
2018-Jul-09 13:31N 34°39' E 135°26'611.2
2018-Jul-09 13:01N 34°34' E 135°23'3 4.2
2018-Jul-09 12:19N 34°31' E 135°23'0 0.1
2018-Jul-09 11:50N 34°31' E 135°23'410.5
2018-Jul-09 11:28N 34°35' E 135°23'4 9.5
2018-Jul-09 11:00N 34°39' E 135°25'2 0.3
2018-Jul-09 02:02N 34°39' E 135°28'0 0.0
2018-Jul-09 01:55N 34°39' E 135°28'0 0.0
2018-Jul-09 01:26N 34°39' E 135°28'0 0.0
2018-Jul-09 00:58N 34°39' E 135°28'0 0.0
2018-Jul-09 00:24N 34°39' E 135°28'0 0.0
2018-Jul-08 23:18N 34°39' E 135°28'3 8.8
2018-Jul-08 23:00N 34°39' E 135°25'1 1.2
2018-Jul-08 22:31N 34°39' E 135°24'1 1.6
2018-Jul-08 22:01N 34°38' E 135°24'2 3.5
2018-Jul-08 21:30N 34°39' E 135°26'0 0.1
2018-Jul-08 21:00N 34°39' E 135°26'0 0.2
2018-Jul-08 20:30N 34°39' E 135°26'2 3.6
2018-Jul-08 19:56N 34°39' E 135°28'0 0.0
2018-Jul-08 19:31N 34°39' E 135°28'0 0.0
2018-Jul-08 18:43N 34°39' E 135°28'0 0.0
2018-Jul-08 18:22N 34°39' E 135°28'0 0.0
2018-Jul-08 17:11N 34°39' E 135°28'0 0.0
2018-Jul-08 16:53N 34°39' E 135°28'0 0.0
2018-Jul-08 16:30N 34°39' E 135°28'0 0.0
2018-Jul-08 16:01N 34°39' E 135°28'0 0.0
2018-Jul-08 15:25N 34°39' E 135°28'0 0.0
2018-Jul-08 15:00N 34°39' E 135°28'0 0.0
2018-Jul-08 14:30N 34°39' E 135°28'0 0.0
2018-Jul-08 13:59N 34°39' E 135°28'0 0.0
2018-Jul-08 13:26N 34°39' E 135°28'0 0.0
2018-Jul-08 12:55N 34°39' E 135°28'0 0.0
2018-Jul-08 12:31N 34°39' E 135°28'0 0.0
2018-Jul-08 11:54N 34°39' E 135°28'0 0.0
2018-Jul-08 11:30N 34°39' E 135°28'0 0.0
2018-Jul-08 10:59N 34°39' E 135°28'0 0.0
2018-Jul-08 10:30N 34°39' E 135°28'0 0.0
2018-Jul-08 09:59N 34°39' E 135°28'0 0.0
2018-Jul-08 09:29N 34°39' E 135°28'3 6.4
2018-Jul-08 08:59N 34°39' E 135°24'0 0.3
2018-Jul-08 08:30N 34°39' E 135°24'3 6.8
2018-Jul-08 08:00N 34°39' E 135°28'0 0.0
2018-Jul-08 07:30N 34°39' E 135°28'0 0.0
2018-Jul-08 07:00N 34°39' E 135°28'0 0.0
2018-Jul-08 06:30N 34°39' E 135°28'0 0.0
2018-Jul-08 06:00N 34°39' E 135°28'0 0.0
2018-Jul-08 05:28N 34°39' E 135°28'0 0.0
2018-Jul-08 05:00N 34°39' E 135°28'0 0.0
2018-Jul-08 04:31N 34°39' E 135°28'0 0.0
2018-Jul-08 04:00N 34°39' E 135°28'1 2.9
2018-Jul-08 03:30N 34°38' E 135°27'0 0.2
2018-Jul-08 02:57N 34°38' E 135°27'2 3.4
2018-Jul-08 02:30N 34°39' E 135°28'0 0.0
2018-Jul-08 02:00N 34°39' E 135°28'0 0.0
2018-Jul-08 01:29N 34°39' E 135°28'0 0.0
2018-Jul-08 00:56N 34°39' E 135°28'0 0.0
2018-Jul-08 00:31N 34°39' E 135°28'0 0.0
2018-Jul-07 23:55N 34°39' E 135°28'1 1.6
2018-Jul-07 23:30N 34°39' E 135°27'1 1.4
2018-Jul-07 22:58N 34°38' E 135°27'1 3.1
2018-Jul-07 22:30N 34°39' E 135°25'0 0.9
2018-Jul-07 22:01N 34°39' E 135°24'2 3.6
2018-Jul-07 21:30N 34°39' E 135°27'1 2.0
2018-Jul-07 20:58N 34°39' E 135°28'0 0.0
2018-Jul-07 20:25N 34°39' E 135°28'0 0.0
2018-Jul-07 19:59N 34°39' E 135°28'0 0.0
2018-Jul-07 19:28N 34°39' E 135°28'0 0.0
2018-Jul-07 16:37N 34°39' E 135°28'0 0.0
2018-Jul-07 16:29N 34°39' E 135°28'0 0.0
2018-Jul-07 15:47N 34°39' E 135°28'0 0.0
2018-Jul-07 14:37N 34°39' E 135°28'0 0.0
2018-Jul-07 14:09N 34°39' E 135°28'0 0.0
2018-Jul-07 14:00N 34°39' E 135°28'0 0.0
2018-Jul-07 13:21N 34°39' E 135°28'0 0.0
2018-Jul-07 13:01N 34°39' E 135°28'0 0.0
2018-Jul-07 12:30N 34°39' E 135°28'0 0.0
2018-Jul-07 12:00N 34°39' E 135°28'0 0.0
2018-Jul-07 11:28N 34°39' E 135°28'0 0.0
2018-Jul-07 11:00N 34°39' E 135°28'0 0.0
2018-Jul-07 10:30N 34°39' E 135°28'0 0.0
2018-Jul-07 10:00N 34°39' E 135°28'0 0.0
2018-Jul-07 09:30N 34°39' E 135°28'  

Dump ship's entire track history